owner,sensor,date,latitude,longitude,vertical_datum,direction_of_sea_water_velocity,sea_water_speed,upward_sea_water_velocity,qcFlag 
TABS,ioos:station:wmo:42044:1,1999-11-01T00:00:00Z,26.1914,-97.0507,2.0,108.4349057,9.423587427,-99999.0,'11133222,11111222,99999999' 
TABS,ioos:station:wmo:42044:1,1999-11-01T00:30:00Z,26.1914,-97.0507,2.0,141.1873922,8.791052269,-99999.0,'11133222,11111222,99999999' 
TABS,ioos:station:wmo:42044:1,1999-11-01T01:00:00Z,26.1914,-97.0507,2.0,134.9998948,9.277240969,-99999.0,'11133222,11111222,99999999' 
TABS,ioos:station:wmo:42044:1,1999-11-01T01:30:00Z,26.1914,-97.0507,2.0,140.7703625,9.423990662,-99999.0,'11133222,11111222,99999999' 
TABS,ioos:station:wmo:42044:1,1999-11-01T02:00:00Z,26.1914,-97.0507,2.0,133.0993791,9.381396485,-99999.0,'11133222,11111222,99999999' 
TABS,ioos:station:wmo:42044:1,1999-11-01T02:30:00Z,26.1914,-97.0507,2.0,120.8444426,9.888629834,-99999.0,'11133222,11111222,99999999' 
TABS,ioos:station:wmo:42044:1,1999-11-01T03:00:00Z,26.1914,-97.0507,2.0,140.6083268,8.6824075,-99999.0,'11133222,11111222,99999999' 
TABS,ioos:station:wmo:42044:1,1999-11-01T03:30:00Z,26.1914,-97.0507,2.0,152.6163469,9.392443771,-99999.0,'11133222,11111222,99999999' 
TABS,ioos:station:wmo:42044:1,1999-11-01T04:00:00Z,26.1914,-97.0507,2.0,158.7527685,8.637094419,-99999.0,'11133222,11111222,99999999' 
TABS,ioos:station:wmo:42044:1,1999-11-01T04:30:00Z,26.1914,-97.0507,2.0,160.6587014,8.997805288,-99999.0,'11133222,11111222,99999999' 
TABS,ioos:station:wmo:42044:1,1999-11-01T05:00:00Z,26.1914,-97.0507,2.0,169.43133,8.941683287,-99999.0,'11133222,11111222,99999999' 
TABS,ioos:station:wmo:42044:1,1999-11-01T05:30:00Z,26.1914,-97.0507,2.0,162.7667141,9.046104134,-99999.0,'11133222,11111222,99999999' 
TABS,ioos:station:wmo:42044:1,1999-11-01T06:00:00Z,26.1914,-97.0507,2.0,161.5862389,8.484391552,-99999.0,'11133222,11111222,99999999' 
TABS,ioos:station:wmo:42044:1,1999-11-01T06:30:00Z,26.1914,-97.0507,2.0,79.4633105,10.60888778,-99999.0,'11111222,11111222,99999999' 
TABS,ioos:station:wmo:42044:1,1999-11-01T07:00:00Z,26.1914,-97.0507,2.0,83.91892471,11.23320969,-99999.0,'11111222,11111222,99999999' 
TABS,ioos:station:wmo:42044:1,1999-11-01T07:30:00Z,26.1914,-97.0507,2.0,87.69300757,11.17906078,-99999.0,'11111222,11111222,99999999' 
TABS,ioos:station:wmo:42044:1,1999-11-01T08:00:00Z,26.1914,-97.0507,2.0,89.29673362,12.22092059,-99999.0,'11111222,11111222,99999999' 
TABS,ioos:station:wmo:42044:1,1999-11-01T08:30:00Z,26.1914,-97.0507,2.0,86.4476145,11.94294771,-99999.0,'11111222,11111222,99999999' 
TABS,ioos:station:wmo:42044:1,1999-11-01T09:00:00Z,26.1914,-97.0507,2.0,79.93096085,11.95412063,-99999.0,'11111222,11111222,99999999' 
TABS,ioos:station:wmo:42044:1,1999-11-01T09:30:00Z,26.1914,-97.0507,2.0,88.77329998,14.01321162,-99999.0,'11111222,11111222,99999999' 
TABS,ioos:station:wmo:42044:1,1999-11-01T10:00:00Z,26.1914,-97.0507,2.0,83.95802812,12.73071875,-99999.0,'11111222,11111222,99999999' 
TABS,ioos:station:wmo:42044:1,1999-11-01T10:30:00Z,26.1914,-97.0507,2.0,78.7085824,12.15527869,-99999.0,'11111222,11111222,99999999' 
TABS,ioos:station:wmo:42044:1,1999-11-01T11:00:00Z,26.1914,-97.0507,2.0,80.29456908,12.39743925,-99999.0,'11111222,11111222,99999999' 
TABS,ioos:station:wmo:42044:1,1999-11-01T11:30:00Z,26.1914,-97.0507,2.0,77.8687073,12.03884546,-99999.0,'11111222,11111222,99999999' 
TABS,ioos:station:wmo:42044:1,1999-11-01T12:00:00Z,26.1914,-97.0507,2.0,74.2371525,12.07405483,-99999.0,'11111222,11111222,99999999' 
TABS,ioos:station:wmo:42044:1,1999-11-01T12:30:00Z,26.1914,-97.0507,2.0,83.15926524,11.25008889,-99999.0,'11111222,11111222,99999999' 
TABS,ioos:station:wmo:42044:1,1999-11-01T13:00:00Z,26.1914,-97.0507,2.0,83.91892471,11.23320969,-99999.0,'11111222,11111222,99999999' 
TABS,ioos:station:wmo:42044:1,1999-11-01T13:30:00Z,26.1914,-97.0507,2.0,71.43691632,1.413541651,-99999.0,'11133222,11111222,99999999' 
TABS,ioos:station:wmo:42044:1,1999-11-01T14:00:00Z,26.1914,-97.0507,2.0,90.0,9.68,-99999.0,'11133222,11111222,99999999' 
TABS,ioos:station:wmo:42044:1,1999-11-01T14:30:00Z,26.1914,-97.0507,2.0,81.74278879,8.285897658,-99999.0,'11133222,11111222,99999999' 
TABS,ioos:station:wmo:42044:1,1999-11-01T15:00:00Z,26.1914,-97.0507,2.0,82.02114203,8.572992476,-99999.0,'11133222,11111222,99999999' 
TABS,ioos:station:wmo:42044:1,1999-11-01T15:30:00Z,26.1914,-97.0507,2.0,83.44893972,7.800935841,-99999.0,'11133222,11111222,99999999' 
TABS,ioos:station:wmo:42044:1,1999-11-01T16:00:00Z,26.1914,-97.0507,2.0,87.69403867,7.456037822,-99999.0,'11133222,11111222,99999999' 
TABS,ioos:station:wmo:42044:1,1999-11-01T16:30:00Z,26.1914,-97.0507,2.0,85.10468078,8.671631911,-99999.0,'11133222,11111222,99999999' 
TABS,ioos:station:wmo:42044:1,1999-11-01T17:00:00Z,26.1914,-97.0507,2.0,82.15792542,8.721565226,-99999.0,'11133222,11111222,99999999' 
TABS,ioos:station:wmo:42044:1,1999-11-01T17:30:00Z,26.1914,-97.0507,2.0,82.59850873,11.56637368,-99999.0,'11111222,11111222,99999999' 
TABS,ioos:station:wmo:42044:1,1999-11-01T18:00:00Z,26.1914,-97.0507,2.0,120.4069528,7.942474426,-99999.0,'11133222,11111222,99999999' 
TABS,ioos:station:wmo:42044:1,1999-11-01T18:30:00Z,26.1914,-97.0507,2.0,214.7535009,13.59527124,-99999.0,'11111222,11111222,99999999' 
TABS,ioos:station:wmo:42044:1,1999-11-01T19:00:00Z,26.1914,-97.0507,2.0,220.5972203,16.48888413,-99999.0,'11111222,11111222,99999999' 
TABS,ioos:station:wmo:42044:1,1999-11-01T19:30:00Z,26.1914,-97.0507,2.0,212.4504024,15.00260311,-99999.0,'11111222,11111222,99999999' 
TABS,ioos:station:wmo:42044:1,1999-11-01T20:00:00Z,26.1914,-97.0507,2.0,212.4037364,11.12176695,-99999.0,'11111222,11111222,99999999' 
TABS,ioos:station:wmo:42044:1,1999-11-01T20:30:00Z,26.1914,-97.0507,2.0,227.4638408,9.703406618,-99999.0,'11133222,11111222,99999999' 
TABS,ioos:station:wmo:42044:1,1999-11-01T21:00:00Z,26.1914,-97.0507,2.0,232.2222915,13.38567891,-99999.0,'11111222,11111222,99999999' 
TABS,ioos:station:wmo:42044:1,1999-11-01T21:30:00Z,26.1914,-97.0507,2.0,235.9671021,14.38363306,-99999.0,'11111222,11111222,99999999' 
TABS,ioos:station:wmo:42044:1,1999-11-01T22:00:00Z,26.1914,-97.0507,2.0,236.0010546,15.451398,-99999.0,'11111222,11111222,99999999' 
TABS,ioos:station:wmo:42044:1,1999-11-01T22:30:00Z,26.1914,-97.0507,2.0,244.5291839,17.32374382,-99999.0,'11111222,11111222,99999999' 
TABS,ioos:station:wmo:42044:1,1999-11-01T23:00:00Z,26.1914,-97.0507,2.0,240.1803695,15.28357288,-99999.0,'11111222,11111222,99999999' 
TABS,ioos:station:wmo:42044:1,1999-11-01T23:30:00Z,26.1914,-97.0507,2.0,251.9067681,15.35945637,-99999.0,'11111222,11111222,99999999' 
TABS,ioos:station:wmo:42044:1,1999-11-02T00:00:00Z,26.1914,-97.0507,2.0,246.653555,21.42402857,-99999.0,'11111222,11111222,99999999' 
TABS,ioos:station:wmo:42044:1,1999-11-02T00:30:00Z,26.1914,-97.0507,2.0,248.5766067,20.80761639,-99999.0,'11111222,11111222,99999999' 
TABS,ioos:station:wmo:42044:1,1999-11-02T01:00:00Z,26.1914,-97.0507,2.0,264.2802134,19.46690782,-99999.0,'11111222,11111222,99999999' 
TABS,ioos:station:wmo:42044:1,1999-11-02T01:30:00Z,26.1914,-97.0507,2.0,271.8450537,18.63965933,-99999.0,'11111222,11111222,99999999' 
TABS,ioos:station:wmo:42044:1,1999-11-02T02:00:00Z,26.1914,-97.0507,2.0,252.0095832,18.32595154,-99999.0,'11111222,11111222,99999999' 
TABS,ioos:station:wmo:42044:1,1999-11-02T02:30:00Z,26.1914,-97.0507,2.0,274.9715933,17.19467941,-99999.0,'11111222,11111222,99999999' 
TABS,ioos:station:wmo:42044:1,1999-11-02T03:00:00Z,26.1914,-97.0507,2.0,289.6918128,19.4685002,-99999.0,'11111222,11111222,99999999' 
TABS,ioos:station:wmo:42044:1,1999-11-02T03:30:00Z,26.1914,-97.0507,2.0,304.4528542,18.96687903,-99999.0,'11111222,11111222,99999999' 
TABS,ioos:station:wmo:42044:1,1999-11-02T04:00:00Z,26.1914,-97.0507,2.0,293.6243405,18.21664349,-99999.0,'11111222,11111222,99999999' 
TABS,ioos:station:wmo:42044:1,1999-11-02T04:30:00Z,26.1914,-97.0507,2.0,279.0191657,16.13953221,-99999.0,'11111222,11111222,99999999' 
TABS,ioos:station:wmo:42044:1,1999-11-02T05:00:00Z,26.1914,-97.0507,2.0,319.2252924,15.74054637,-99999.0,'11111222,11111222,99999999' 
TABS,ioos:station:wmo:42044:1,1999-11-02T05:30:00Z,26.1914,-97.0507,2.0,30.78299965,8.14793839,-99999.0,'11133222,11111222,99999999' 
TABS,ioos:station:wmo:42044:1,1999-11-02T06:00:00Z,26.1914,-97.0507,2.0,92.06010621,4.17269697,-99999.0,'11133222,11111222,99999999' 
TABS,ioos:station:wmo:42044:1,1999-11-02T06:30:00Z,26.1914,-97.0507,2.0,139.1147942,5.912512156,-99999.0,'11133222,11111222,99999999' 
TABS,ioos:station:wmo:42044:1,1999-11-02T07:00:00Z,26.1914,-97.0507,2.0,110.271312,7.302287313,-99999.0,'11133222,11111222,99999999' 
TABS,ioos:station:wmo:42044:1,1999-11-02T07:30:00Z,26.1914,-97.0507,2.0,211.8041829,8.766236365,-99999.0,'11133222,11111222,99999999' 
TABS,ioos:station:wmo:42044:1,1999-11-02T08:00:00Z,26.1914,-97.0507,2.0,179.1386974,9.981127191,-99999.0,'11133222,11111222,99999999' 
TABS,ioos:station:wmo:42044:1,1999-11-02T08:30:00Z,26.1914,-97.0507,2.0,176.4010298,9.558849303,-99999.0,'11133222,11111222,99999999' 
TABS,ioos:station:wmo:42044:1,1999-11-02T09:00:00Z,26.1914,-97.0507,2.0,181.7478425,9.834576758,-99999.0,'11133222,11111222,99999999' 
TABS,ioos:station:wmo:42044:1,1999-11-02T09:30:00Z,26.1914,-97.0507,2.0,179.9997895,10.88,-99999.0,'11111222,11111222,99999999' 
TABS,ioos:station:wmo:42044:1,1999-11-02T10:00:00Z,26.1914,-97.0507,2.0,176.8761345,13.58017673,-99999.0,'11111222,11111222,99999999' 
TABS,ioos:station:wmo:42044:1,1999-11-02T10:30:00Z,26.1914,-97.0507,2.0,186.8211231,13.80774058,-99999.0,'11111222,11111222,99999999' 
TABS,ioos:station:wmo:42044:1,1999-11-02T11:00:00Z,26.1914,-97.0507,2.0,190.0672004,16.18927114,-99999.0,'11111222,11111222,99999999' 
TABS,ioos:station:wmo:42044:1,1999-11-02T11:30:00Z,26.1914,-97.0507,2.0,189.7590313,19.35002067,-99999.0,'11111222,11111222,99999999' 
TABS,ioos:station:wmo:42044:1,1999-11-02T12:00:00Z,26.1914,-97.0507,2.0,189.0639583,20.81999039,-99999.0,'11111222,11111222,99999999' 
TABS,ioos:station:wmo:42044:1,1999-11-02T12:30:00Z,26.1914,-97.0507,2.0,188.8415834,22.31518317,-99999.0,'11111222,11111222,99999999' 
TABS,ioos:station:wmo:42044:1,1999-11-02T13:00:00Z,26.1914,-97.0507,2.0,188.1209995,27.39473125,-99999.0,'11111222,11111222,99999999' 
TABS,ioos:station:wmo:42044:1,1999-11-02T13:30:00Z,26.1914,-97.0507,2.0,187.9444669,32.34040507,-99999.0,'11111222,11111222,99999999' 
TABS,ioos:station:wmo:42044:1,1999-11-02T14:00:00Z,26.1914,-97.0507,2.0,187.4400655,33.36088728,-99999.0,'11111222,11111222,99999999' 
TABS,ioos:station:wmo:42044:1,1999-11-02T14:30:00Z,26.1914,-97.0507,2.0,183.4022676,32.68761998,-99999.0,'11111222,11111222,99999999' 
TABS,ioos:station:wmo:42044:1,1999-11-02T15:00:00Z,26.1914,-97.0507,2.0,183.3480779,40.74956196,-99999.0,'11111222,11111222,99999999' 
TABS,ioos:station:wmo:42044:1,1999-11-02T15:30:00Z,26.1914,-97.0507,2.0,184.0419442,42.27516174,-99999.0,'11111222,11111222,99999999' 
TABS,ioos:station:wmo:42044:1,1999-11-02T16:00:00Z,26.1914,-97.0507,2.0,183.4832664,46.57605608,-99999.0,'11111222,11111222,99999999' 
TABS,ioos:station:wmo:42044:1,1999-11-02T16:30:00Z,26.1914,-97.0507,2.0,182.0657862,49.65227588,-99999.0,'11111222,11111222,99999999' 
TABS,ioos:station:wmo:42044:1,1999-11-02T17:00:00Z,26.1914,-97.0507,2.0,175.4017238,52.01741439,-99999.0,'11111222,11111222,99999999' 
TABS,ioos:station:wmo:42044:1,1999-11-02T17:30:00Z,26.1914,-97.0507,2.0,171.6954416,47.4272854,-99999.0,'11111222,11111222,99999999' 
TABS,ioos:station:wmo:42044:1,1999-11-02T18:00:00Z,26.1914,-97.0507,2.0,176.223645,63.31746442,-99999.0,'11111222,11111222,99999999' 
TABS,ioos:station:wmo:42044:1,1999-11-02T18:30:00Z,26.1914,-97.0507,2.0,170.5965381,51.04591267,-99999.0,'11111222,11111222,99999999' 
TABS,ioos:station:wmo:42044:1,1999-11-02T19:00:00Z,26.1914,-97.0507,2.0,170.5683962,51.81034839,-99999.0,'11111222,11111222,99999999' 
TABS,ioos:station:wmo:42044:1,1999-11-02T19:30:00Z,26.1914,-97.0507,2.0,173.775968,46.7656391,-99999.0,'11111222,11111222,99999999' 
TABS,ioos:station:wmo:42044:1,1999-11-02T20:00:00Z,26.1914,-97.0507,2.0,175.3080247,50.98082973,-99999.0,'11111222,11111222,99999999' 
TABS,ioos:station:wmo:42044:1,1999-11-02T20:30:00Z,26.1914,-97.0507,2.0,178.2746084,49.49243377,-99999.0,'11111222,11111222,99999999' 
TABS,ioos:station:wmo:42044:1,1999-11-02T21:00:00Z,26.1914,-97.0507,2.0,174.4785464,52.6944722,-99999.0,'11111222,11111222,99999999' 
TABS,ioos:station:wmo:42044:1,1999-11-02T21:30:00Z,26.1914,-97.0507,2.0,178.7343311,47.09148543,-99999.0,'11111222,11111222,99999999' 
TABS,ioos:station:wmo:42044:1,1999-11-02T22:00:00Z,26.1914,-97.0507,2.0,175.0735321,46.81292557,-99999.0,'11111222,11111222,99999999' 
TABS,ioos:station:wmo:42044:1,1999-11-02T22:30:00Z,26.1914,-97.0507,2.0,179.9997895,44.1,-99999.0,'11111222,11111222,99999999' 
TABS,ioos:station:wmo:42044:1,1999-11-02T23:00:00Z,26.1914,-97.0507,2.0,180.9514142,44.55614548,-99999.0,'11111222,11111222,99999999' 
TABS,ioos:station:wmo:42044:1,1999-11-02T23:30:00Z,26.1914,-97.0507,2.0,183.8540039,39.87017432,-99999.0,'11111222,11111222,99999999' 
TABS,ioos:station:wmo:42044:1,1999-11-03T00:00:00Z,26.1914,-97.0507,2.0,182.0266704,46.3690112,-99999.0,'11111222,11111222,99999999' 
TABS,ioos:station:wmo:42044:1,1999-11-03T00:30:00Z,26.1914,-97.0507,2.0,183.7913102,47.33360117,-99999.0,'11111222,11111222,99999999' 
TABS,ioos:station:wmo:42044:1,1999-11-03T01:00:00Z,26.1914,-97.0507,2.0,181.4476932,47.09503689,-99999.0,'11111222,11111222,99999999' 
TABS,ioos:station:wmo:42044:1,1999-11-03T01:30:00Z,26.1914,-97.0507,2.0,180.7344658,46.79384682,-99999.0,'11111222,11111222,99999999' 
TABS,ioos:station:wmo:42044:1,1999-11-03T02:00:00Z,26.1914,-97.0507,2.0,184.7196746,43.50753958,-99999.0,'11111222,11111222,99999999' 
TABS,ioos:station:wmo:42044:1,1999-11-03T02:30:00Z,26.1914,-97.0507,2.0,186.3018512,44.82085341,-99999.0,'11111222,11111222,99999999' 
TABS,ioos:station:wmo:42044:1,1999-11-03T03:00:00Z,26.1914,-97.0507,2.0,185.8255896,44.03744997,-99999.0,'11111222,11111222,99999999' 
TABS,ioos:station:wmo:42044:1,1999-11-03T03:30:00Z,26.1914,-97.0507,2.0,179.8022645,43.51025856,-99999.0,'11111222,11111222,99999999' 
TABS,ioos:station:wmo:42044:1,1999-11-03T04:00:00Z,26.1914,-97.0507,2.0,185.1690788,41.2879256,-99999.0,'11111222,11111222,99999999' 
TABS,ioos:station:wmo:42044:1,1999-11-03T04:30:00Z,26.1914,-97.0507,2.0,180.4073874,42.1710671,-99999.0,'11111222,11111222,99999999' 
TABS,ioos:station:wmo:42044:1,1999-11-03T05:00:00Z,26.1914,-97.0507,2.0,182.0119709,38.16353233,-99999.0,'11111222,11111222,99999999' 
TABS,ioos:station:wmo:42044:1,1999-11-03T05:30:00Z,26.1914,-97.0507,2.0,180.6601865,39.04259341,-99999.0,'11111222,11111222,99999999' 
TABS,ioos:station:wmo:42044:1,1999-11-03T06:00:00Z,26.1914,-97.0507,2.0,179.5543802,38.59116609,-99999.0,'11111222,11111222,99999999' 
TABS,ioos:station:wmo:42044:1,1999-11-03T06:30:00Z,26.1914,-97.0507,2.0,184.6015494,35.27370834,-99999.0,'11111222,11111222,99999999' 
TABS,ioos:station:wmo:42044:1,1999-11-03T07:00:00Z,26.1914,-97.0507,2.0,181.8005105,33.09634421,-99999.0,'11111222,11111222,99999999' 
TABS,ioos:station:wmo:42044:1,1999-11-03T07:30:00Z,26.1914,-97.0507,2.0,182.9897542,34.31671604,-99999.0,'11111222,11111222,99999999' 
TABS,ioos:station:wmo:42044:1,1999-11-03T08:00:00Z,26.1914,-97.0507,2.0,184.7167006,32.59037895,-99999.0,'11111222,11111222,99999999' 
TABS,ioos:station:wmo:42044:1,1999-11-03T08:30:00Z,26.1914,-97.0507,2.0,183.3377871,30.74215672,-99999.0,'11111222,11111222,99999999' 
TABS,ioos:station:wmo:42044:1,1999-11-03T09:00:00Z,26.1914,-97.0507,2.0,180.8198048,31.44322025,-99999.0,'11111222,11111222,99999999' 
TABS,ioos:station:wmo:42044:1,1999-11-03T09:30:00Z,26.1914,-97.0507,2.0,187.1707685,26.27552664,-99999.0,'11111222,11111222,99999999' 
TABS,ioos:station:wmo:42044:1,1999-11-03T10:00:00Z,26.1914,-97.0507,2.0,179.0643487,27.56367356,-99999.0,'11111222,11111222,99999999' 
TABS,ioos:station:wmo:42044:1,1999-11-03T10:30:00Z,26.1914,-97.0507,2.0,189.6745702,26.59829506,-99999.0,'11111222,11111222,99999999' 
TABS,ioos:station:wmo:42044:1,1999-11-03T11:00:00Z,26.1914,-97.0507,2.0,182.9580591,25.9646009,-99999.0,'11111222,11111222,99999999' 
TABS,ioos:station:wmo:42044:1,1999-11-03T11:30:00Z,26.1914,-97.0507,2.0,184.7445883,25.26658861,-99999.0,'11111222,11111222,99999999' 
TABS,ioos:station:wmo:42044:1,1999-11-03T12:00:00Z,26.1914,-97.0507,2.0,184.9176029,24.37974979,-99999.0,'11111222,11111222,99999999' 
TABS,ioos:station:wmo:42044:1,1999-11-03T12:30:00Z,26.1914,-97.0507,2.0,189.6957473,22.97823753,-99999.0,'11111222,11111222,99999999' 
TABS,ioos:station:wmo:42044:1,1999-11-03T13:00:00Z,26.1914,-97.0507,2.0,188.72474,22.61166513,-99999.0,'11111222,11111222,99999999' 
TABS,ioos:station:wmo:42044:1,1999-11-03T13:30:00Z,26.1914,-97.0507,2.0,190.9961583,21.86139291,-99999.0,'11111222,11111222,99999999' 
TABS,ioos:station:wmo:42044:1,1999-11-03T14:00:00Z,26.1914,-97.0507,2.0,170.8595602,14.03825132,-99999.0,'11111222,11111222,99999999' 
TABS,ioos:station:wmo:42044:1,1999-11-03T14:30:00Z,26.1914,-97.0507,2.0,203.4568654,20.95146773,-99999.0,'11111222,11111222,99999999' 
TABS,ioos:station:wmo:42044:1,1999-11-03T15:00:00Z,26.1914,-97.0507,2.0,194.4728628,19.08568312,-99999.0,'11111222,11111222,99999999' 
TABS,ioos:station:wmo:42044:1,1999-11-03T15:30:00Z,26.1914,-97.0507,2.0,182.3897604,17.74543603,-99999.0,'11111222,11111222,99999999' 
TABS,ioos:station:wmo:42044:1,1999-11-03T16:00:00Z,26.1914,-97.0507,2.0,195.0770439,21.7590372,-99999.0,'11111222,11111222,99999999' 
TABS,ioos:station:wmo:42044:1,1999-11-03T16:30:00Z,26.1914,-97.0507,2.0,190.811368,16.6861919,-99999.0,'11111222,11111222,99999999' 
TABS,ioos:station:wmo:42044:1,1999-11-03T17:00:00Z,26.1914,-97.0507,2.0,191.8632238,15.22520607,-99999.0,'11111222,11111222,99999999' 
TABS,ioos:station:wmo:42044:1,1999-11-03T17:30:00Z,26.1914,-97.0507,2.0,157.0960151,11.48552567,-99999.0,'11111222,11111222,99999999' 
TABS,ioos:station:wmo:42044:1,1999-11-03T18:00:00Z,26.1914,-97.0507,2.0,187.9058963,15.19442661,-99999.0,'11111222,11111222,99999999' 
TABS,ioos:station:wmo:42044:1,1999-11-03T18:30:00Z,26.1914,-97.0507,2.0,176.0713027,12.99052347,-99999.0,'11111222,11111222,99999999' 
TABS,ioos:station:wmo:42044:1,1999-11-03T19:00:00Z,26.1914,-97.0507,2.0,190.8904449,12.5968766,-99999.0,'11111222,11111222,99999999' 
TABS,ioos:station:wmo:42044:1,1999-11-03T19:30:00Z,26.1914,-97.0507,2.0,172.4644493,10.21824349,-99999.0,'11111222,11111222,99999999' 
TABS,ioos:station:wmo:42044:1,1999-11-03T20:00:00Z,26.1914,-97.0507,2.0,187.0210633,10.96220781,-99999.0,'11111222,11111222,99999999' 
TABS,ioos:station:wmo:42044:1,1999-11-03T20:30:00Z,26.1914,-97.0507,2.0,181.6013009,10.73419303,-99999.0,'11111222,11111222,99999999' 
TABS,ioos:station:wmo:42044:1,1999-11-03T21:00:00Z,26.1914,-97.0507,2.0,176.5069319,9.848294269,-99999.0,'11133222,11111222,99999999' 
TABS,ioos:station:wmo:42044:1,1999-11-03T21:30:00Z,26.1914,-97.0507,2.0,216.3806031,7.030256041,-99999.0,'11133222,11111222,99999999' 
TABS,ioos:station:wmo:42044:1,1999-11-03T22:00:00Z,26.1914,-97.0507,2.0,234.6595548,8.765124072,-99999.0,'11133222,11111222,99999999' 
TABS,ioos:station:wmo:42044:1,1999-11-03T22:30:00Z,26.1914,-97.0507,2.0,223.3598817,7.165926318,-99999.0,'11133222,11111222,99999999' 
TABS,ioos:station:wmo:42044:1,1999-11-03T23:00:00Z,26.1914,-97.0507,2.0,202.8062317,6.140032573,-99999.0,'11133222,11111222,99999999' 
TABS,ioos:station:wmo:42044:1,1999-11-03T23:30:00Z,26.1914,-97.0507,2.0,173.8340979,6.889854861,-99999.0,'11133222,11111222,99999999' 
TABS,ioos:station:wmo:42044:1,1999-11-04T00:00:00Z,26.1914,-97.0507,2.0,290.6676099,8.443364258,-99999.0,'11133222,11111222,99999999' 
TABS,ioos:station:wmo:42044:1,1999-11-04T00:30:00Z,26.1914,-97.0507,2.0,312.3207275,9.07503168,-99999.0,'11133222,11111222,99999999' 
TABS,ioos:station:wmo:42044:1,1999-11-04T01:00:00Z,26.1914,-97.0507,2.0,290.0606106,8.250539376,-99999.0,'11133222,11111222,99999999' 
TABS,ioos:station:wmo:42044:1,1999-11-04T01:30:00Z,26.1914,-97.0507,2.0,273.3867473,5.078867984,-99999.0,'11133222,11111222,99999999' 
TABS,ioos:station:wmo:42044:1,1999-11-04T02:00:00Z,26.1914,-97.0507,2.0,279.4280489,5.433387525,-99999.0,'11133222,11111222,99999999' 
TABS,ioos:station:wmo:42044:1,1999-11-04T02:30:00Z,26.1914,-97.0507,2.0,266.1628443,6.72507249,-99999.0,'11133222,11111222,99999999' 
TABS,ioos:station:wmo:42044:1,1999-11-04T03:00:00Z,26.1914,-97.0507,2.0,302.4640014,5.831234861,-99999.0,'11133222,11111222,99999999' 
TABS,ioos:station:wmo:42044:1,1999-11-04T03:30:00Z,26.1914,-97.0507,2.0,299.3295835,5.471316112,-99999.0,'11133222,11111222,99999999' 
TABS,ioos:station:wmo:42044:1,1999-11-04T04:00:00Z,26.1914,-97.0507,2.0,310.7881105,4.33212419,-99999.0,'11133222,11111222,99999999' 
TABS,ioos:station:wmo:42044:1,1999-11-04T04:30:00Z,26.1914,-97.0507,2.0,310.0775118,4.861614958,-99999.0,'11133222,11111222,99999999' 
TABS,ioos:station:wmo:42044:1,1999-11-04T05:00:00Z,26.1914,-97.0507,2.0,323.9590751,6.08463639,-99999.0,'11133222,11111222,99999999' 
TABS,ioos:station:wmo:42044:1,1999-11-04T05:30:00Z,26.1914,-97.0507,2.0,302.3386395,5.290538725,-99999.0,'11133222,11111222,99999999' 
TABS,ioos:station:wmo:42044:1,1999-11-04T06:00:00Z,26.1914,-97.0507,2.0,319.5669506,6.66087832,-99999.0,'11133222,11111222,99999999' 
TABS,ioos:station:wmo:42044:1,1999-11-04T06:30:00Z,26.1914,-97.0507,2.0,324.1704478,6.611089169,-99999.0,'11133222,11111222,99999999' 
TABS,ioos:station:wmo:42044:1,1999-11-04T07:00:00Z,26.1914,-97.0507,2.0,345.9639998,6.143427382,-99999.0,'11133222,11111222,99999999' 
TABS,ioos:station:wmo:42044:1,1999-11-04T07:30:00Z,26.1914,-97.0507,2.0,326.2609139,6.445618667,-99999.0,'11133222,11111222,99999999' 
TABS,ioos:station:wmo:42044:1,1999-11-04T08:00:00Z,26.1914,-97.0507,2.0,320.4605155,7.728389224,-99999.0,'11133222,11111222,99999999' 
TABS,ioos:station:wmo:42044:1,1999-11-04T08:30:00Z,26.1914,-97.0507,2.0,336.469254,6.336955105,-99999.0,'11133222,11111222,99999999' 
TABS,ioos:station:wmo:42044:1,1999-11-04T09:00:00Z,26.1914,-97.0507,2.0,334.6627974,6.262427644,-99999.0,'11133222,11111222,99999999' 
TABS,ioos:station:wmo:42044:1,1999-11-04T09:30:00Z,26.1914,-97.0507,2.0,326.3102217,5.913104092,-99999.0,'11133222,11111222,99999999' 
TABS,ioos:station:wmo:42044:1,1999-11-04T10:00:00Z,26.1914,-97.0507,2.0,349.9435499,6.814704689,-99999.0,'11133222,11111222,99999999' 
TABS,ioos:station:wmo:42044:1,1999-11-04T10:30:00Z,26.1914,-97.0507,2.0,341.5879244,8.010049937,-99999.0,'11133222,11111222,99999999' 
TABS,ioos:station:wmo:42044:1,1999-11-04T11:00:00Z,26.1914,-97.0507,2.0,341.8642358,9.091672013,-99999.0,'11133222,11111222,99999999' 
TABS,ioos:station:wmo:42044:1,1999-11-04T11:30:00Z,26.1914,-97.0507,2.0,349.2525095,8.794270862,-99999.0,'11133222,11111222,99999999' 
TABS,ioos:station:wmo:42044:1,1999-11-04T12:00:00Z,26.1914,-97.0507,2.0,328.6656415,7.153355856,-99999.0,'11133222,11111222,99999999' 
TABS,ioos:station:wmo:42044:1,1999-11-04T12:30:00Z,26.1914,-97.0507,2.0,0.000210459,5.36,-99999.0,'11133222,11111222,99999999' 
TABS,ioos:station:wmo:42044:1,1999-11-04T13:00:00Z,26.1914,-97.0507,2.0,311.8553656,5.799939655,-99999.0,'11133222,11111222,99999999' 
TABS,ioos:station:wmo:42044:1,1999-11-04T13:30:00Z,26.1914,-97.0507,2.0,358.1406155,4.622434424,-99999.0,'11133222,11111222,99999999' 
TABS,ioos:station:wmo:42044:1,1999-11-04T14:00:00Z,26.1914,-97.0507,2.0,327.2720057,4.956944623,-99999.0,'11133222,11111222,99999999' 
TABS,ioos:station:wmo:42044:1,1999-11-04T14:30:00Z,26.1914,-97.0507,2.0,275.3479265,6.438019882,-99999.0,'11133222,11111222,99999999' 
TABS,ioos:station:wmo:42044:1,1999-11-04T15:00:00Z,26.1914,-97.0507,2.0,219.6483652,5.610597116,-99999.0,'11133222,11111222,99999999' 
TABS,ioos:station:wmo:42044:1,1999-11-04T15:30:00Z,26.1914,-97.0507,2.0,342.4133691,19.22875451,-99999.0,'11111222,11111222,99999999' 
TABS,ioos:station:wmo:42044:1,1999-11-04T16:00:00Z,26.1914,-97.0507,2.0,318.8395574,23.55000849,-99999.0,'11111222,11111222,99999999' 